| time (UTC) | temp F | wind direction | speed knots | gust knots | rain 1hr in | rain 24hr in | rain mn in | humidity % | barometer mb |
| 20260901103020 | 65 | 137 | 0.0 | 0.0 | 0.00 | 0.01 | 0.00 | 90 | 1016.1 |
| 20260901101520 | 65 | 137 | 0.0 | 0.0 | 0.00 | 0.01 | 0.00 | 89 | 1015.9 |
| 20260901100017 | 65 | 137 | 0.0 | 0.9 | 0.00 | 0.01 | 0.00 | 89 | 1015.8 |
| 20260901094525 | 65 | 137 | 0.0 | 0.0 | 0.00 | 0.01 | 0.00 | 89 | 1015.8 |
| 20260901093017 | 65 | 137 | 0.0 | 0.0 | 0.00 | 0.01 | 0.00 | 89 | 1015.8 |
| 20260901091514 | 65 | 137 | 0.0 | 0.9 | 0.00 | 0.01 | 0.00 | 89 | 1015.9 |
| 20260901090014 | 65 | 137 | 0.0 | 0.9 | 0.00 | 0.01 | 0.00 | 89 | 1015.9 |
| 20260901084512 | 65 | 137 | 0.0 | 0.0 | 0.00 | 0.01 | 0.00 | 89 | 1015.9 |
| 20260901083012 | 66 | 137 | 0.0 | 0.0 | 0.00 | 0.01 | 0.00 | 89 | 1016.1 |
| 20260901081512 | 66 | 137 | 0.0 | 0.0 | 0.00 | 0.01 | 0.00 | 89 | 1016.3 |
| 20260901080008 | 66 | 137 | 0.0 | 0.0 | 0.00 | 0.01 | 0.00 | 89 | 1016.4 |
| 20260901074507 | 66 | 137 | 0.0 | 0.9 | 0.00 | 0.01 | 0.00 | 89 | 1016.4 |
| 20260901073015 | 66 | 136 | 0.0 | 0.9 | 0.00 | 0.01 | 0.00 | 88 | 1016.4 |
| 20260901071505 | 66 | 136 | 0.0 | 0.0 | 0.00 | 0.01 | 0.00 | 88 | 1016.6 |
| 20260901070007 | 65 | 136 | 0.0 | 0.9 | 0.00 | 0.01 | 0.00 | 88 | 1016.5 |
| 20260901064509 | 65 | 136 | 0.0 | 0.9 | 0.00 | 0.01 | 0.00 | 88 | 1016.7 |
| 20260901063002 | 66 | 136 | 0.0 | 0.9 | 0.00 | 0.01 | 0.00 | 87 | 1016.7 |
| 20260901061502 | 66 | 136 | 0.0 | 0.9 | 0.00 | 0.01 | 0.00 | 87 | 1016.7 |
| 20260901060001 | 66 | 136 | 0.0 | 1.7 | 0.00 | 0.01 | 0.00 | 87 | 1016.8 |
| 20260901054602 | 66 | 136 | 0.0 | 1.7 | 0.00 | 0.01 | 0.00 | 86 | 1016.8 |
| 20260901054502 | 66 | 136 | 0.0 | 1.7 | 0.00 | 0.01 | 0.00 | 86 | 1016.7 |
| 20260901053120 | 66 | 135 | 0.0 | 0.9 | 0.00 | 0.01 | 0.00 | 86 | 1016.7 |
| 20260901051600 | 66 | 128 | 0.0 | 0.9 | 0.00 | 0.01 | 0.00 | 86 | 1016.9 |
| 20260901050057 | 66 | 127 | 0.0 | 2.6 | 0.00 | 0.01 | 0.00 | 85 | 1017.0 |
| 20260901044555 | 66 | 115 | 0.0 | 0.9 | 0.00 | 0.01 | 0.00 | 85 | 1016.9 |
| 20260901043117 | 66 | 114 | 0.0 | 0.9 | 0.00 | 0.01 | 0.00 | 84 | 1016.9 |
| 20260901041605 | 66 | 116 | 0.0 | 0.9 | 0.00 | 0.01 | 0.00 | 84 | 1017.1 |
| 20260901040101 | 66 | 142 | 0.0 | 0.9 | 0.00 | 0.01 | 0.00 | 84 | 1017.1 |
| 20260901034602 | 66 | 142 | 0.0 | 1.7 | 0.00 | 0.09 | 0.01 | 84 | 1017.0 |
| 20260901033102 | 66 | 141 | 0.0 | 1.7 | 0.00 | 0.09 | 0.01 | 84 | 1017.0 |
| 20260901031550 | 66 | 144 | 0.0 | 3.5 | 0.00 | 0.09 | 0.01 | 84 | 1017.1 |
| 20260901030049 | 66 | 161 | 0.0 | 3.5 | 0.00 | 0.09 | 0.01 | 84 | 1017.1 |
| 20260901024554 | 66 | 130 | 0.0 | 3.5 | 0.00 | 0.09 | 0.01 | 83 | 1017.0 |
| 20260901023047 | 66 | 161 | 0.0 | 0.9 | 0.00 | 0.09 | 0.01 | 83 | 1017.1 |
| 20260901021547 | 67 | 51 | 0.0 | 1.7 | 0.00 | 0.09 | 0.01 | 83 | 1017.2 |
| 20260901020047 | 67 | 155 | 0.0 | 4.3 | 0.00 | 0.09 | 0.01 | 84 | 1017.2 |
| 20260901014546 | 67 | 140 | 0.0 | 2.6 | 0.00 | 0.09 | 0.01 | 84 | 1017.3 |
| 20260901013046 | 67 | 151 | 0.0 | 4.3 | 0.00 | 0.09 | 0.01 | 84 | 1017.3 |
| 20260901011554 | 67 | 163 | 0.0 | 2.6 | 0.00 | 0.09 | 0.01 | 83 | 1017.2 |
| 20260901010046 | 68 | 135 | 0.9 | 3.5 | 0.00 | 0.09 | 0.01 | 82 | 1017.2 |
| 20260901004544 | 68 | 149 | 0.0 | 4.3 | 0.00 | 0.09 | 0.01 | 81 | 1017.2 |
| 20260901003053 | 68 | 146 | 0.0 | 3.5 | 0.00 | 0.09 | 0.01 | 80 | 1017.1 |
| 20260901001544 | 68 | 122 | 0.0 | 2.6 | 0.00 | 0.09 | 0.01 | 79 | 1017.1 |
| 20260901000044 | 68 | 160 | 0.9 | 6.1 | 0.00 | 0.09 | 0.01 | 77 | 1017.1 |
| 20260831234542 | 68 | 167 | 0.0 | 6.1 | 0.00 | 0.09 | 0.01 | 75 | 1017.1 |
| 20260831233041 | 68 | 165 | 0.0 | 3.5 | 0.00 | 0.09 | 0.01 | 75 | 1017.2 |
| 20260831231541 | 69 | 178 | 0.0 | 5.2 | 0.00 | 0.09 | 0.01 | 74 | 1017.2 |
| 20260831230041 | 69 | 173 | 1.7 | 5.2 | 0.00 | 0.09 | 0.01 | 73 | 1017.2 |
| 20260831224540 | 70 | 171 | 0.0 | 3.5 | 0.00 | 0.09 | 0.01 | 72 | 1017.2 |
| 20260831223042 | 70 | 90 | 0.0 | 6.1 | 0.00 | 0.09 | 0.01 | 71 | 1017.3 |
| 20260831221542 | 70 | 156 | 0.0 | 4.3 | 0.00 | 0.09 | 0.01 | 71 | 1017.3 |
| 20260831220038 | 70 | 162 | 1.7 | 4.3 | 0.00 | 0.09 | 0.01 | 70 | 1017.3 |
| 20260831214543 | 71 | 173 | 0.9 | 3.5 | 0.00 | 0.09 | 0.01 | 70 | 1017.5 |
| 20260831213043 | 71 | 185 | 0.9 | 4.3 | 0.00 | 0.09 | 0.01 | 70 | 1017.4 |
| 20260831211537 | 72 | 159 | 1.7 | 6.1 | 0.00 | 0.09 | 0.01 | 68 | 1017.4 |
| 20260831210038 | 72 | 165 | 0.0 | 4.3 | 0.00 | 0.09 | 0.01 | 68 | 1017.5 |
| 20260831204549 | 73 | 157 | 0.0 | 4.3 | 0.00 | 0.09 | 0.01 | 65 | 1017.6 |
| 20260831203054 | 74 | 165 | 1.7 | 3.5 | 0.00 | 0.09 | 0.01 | 64 | 1017.5 |
| 20260831201535 | 73 | 182 | 0.9 | 4.3 | 0.00 | 0.09 | 0.01 | 65 | 1017.5 |
| 20260831200040 | 72 | 170 | 1.7 | 5.2 | 0.00 | 0.09 | 0.01 | 66 | 1017.5 |
| 20260831194541 | 72 | 171 | 0.9 | 5.2 | 0.00 | 0.09 | 0.01 | 66 | 1017.6 |
| 20260831193035 | 72 | 319 | 0.0 | 7.0 | 0.00 | 0.09 | 0.01 | 65 | 1017.9 |
| 20260831191535 | 72 | 138 | 0.9 | 5.2 | 0.00 | 0.09 | 0.01 | 63 | 1017.7 |
| 20260831190050 | 73 | 176 | 0.9 | 4.3 | 0.00 | 0.09 | 0.01 | 63 | 1018.0 |
| 20260831184533 | 74 | 173 | 2.6 | 6.1 | 0.00 | 0.09 | 0.01 | 63 | 1018.3 |
| 20260831183034 | 74 | 89 | 0.0 | 3.5 | 0.00 | 0.09 | 0.01 | 60 | 1018.2 |
| 20260831181539 | 74 | 167 | 1.7 | 4.3 | 0.00 | 0.09 | 0.01 | 61 | 1018.2 |
| 20260831180034 | 75 | 96 | 0.0 | 5.2 | 0.00 | 0.09 | 0.01 | 58 | 1018.2 |
| 20260831174529 | 74 | 167 | 0.9 | 4.3 | 0.00 | 0.09 | 0.01 | 60 | 1018.5 |
| 20260831173028 | 73 | 186 | 1.7 | 5.2 | 0.00 | 0.09 | 0.01 | 61 | 1018.5 |
| 20260831171530 | 74 | 83 | 0.0 | 4.3 | 0.00 | 0.09 | 0.01 | 62 | 1018.6 |
| 20260831170035 | 74 | 86 | 0.9 | 5.2 | 0.00 | 0.09 | 0.01 | 60 | 1018.8 |
| 20260831164528 | 75 | 240 | 0.0 | 1.7 | 0.00 | 0.09 | 0.01 | 60 | 1018.8 |
| 20260831163026 | 73 | 302 | 0.9 | 4.3 | 0.00 | 0.09 | 0.01 | 60 | 1019.1 |
| 20260831161523 | 74 | 34 | 0.9 | 8.7 | 0.00 | 0.09 | 0.01 | 62 | 1019.2 |
| 20260831160038 | 73 | 106 | 0.0 | 5.2 | 0.00 | 0.09 | 0.01 | 60 | 1019.3 |
| 20260831154521 | 73 | 52 | 0.0 | 6.1 | 0.00 | 0.09 | 0.01 | 59 | 1019.4 |
| 20260831153043 | 73 | 34 | 0.9 | 7.0 | 0.00 | 0.09 | 0.01 | 59 | 1019.5 |
| 20260831151519 | 72 | 32 | 0.9 | 5.2 | 0.00 | 0.09 | 0.01 | 61 | 1019.5 |
| 20260831150016 | 72 | 71 | 0.9 | 4.3 | 0.00 | 0.09 | 0.01 | 60 | 1019.4 |
| 20260831144511 | 72 | 52 | 0.9 | 4.3 | 0.00 | 0.09 | 0.01 | 62 | 1019.4 |
| 20260831143007 | 71 | 45 | 0.0 | 4.3 | 0.00 | 0.09 | 0.01 | 66 | 1019.4 |
| 20260831141509 | 71 | 40 | 0.0 | 3.5 | 0.00 | 0.09 | 0.01 | 68 | 1019.3 |
| 20260831140059 | 70 | 84 | 0.9 | 2.6 | 0.00 | 0.09 | 0.01 | 70 | 1019.3 |
| 20260831134604 | 69 | 93 | 0.0 | 5.2 | 0.00 | 0.09 | 0.01 | 71 | 1019.4 |
| 20260831133051 | 68 | 124 | 0.0 | 2.6 | 0.00 | 0.09 | 0.01 | 78 | 1019.3 |
| 20260831131551 | 66 | 38 | 0.9 | 3.5 | 0.00 | 0.09 | 0.01 | 85 | 1019.2 |
| 20260831130050 | 65 | 53 | 0.0 | 2.6 | 0.00 | 0.09 | 0.01 | 92 | 1019.2 |
| 20260831124538 | 64 | 48 | 0.9 | 1.7 | 0.00 | 0.09 | 0.01 | 93 | 1019.1 |
| 20260831123043 | 63 | 51 | 0.0 | 7.0 | 0.00 | 0.09 | 0.01 | 93 | 1019.1 |
| 20260831121537 | 62 | 83 | 0.0 | 3.5 | 0.00 | 0.09 | 0.01 | 94 | 1018.8 |
| 20260831120055 | 61 | 190 | 0.0 | 0.0 | 0.00 | 0.09 | 0.01 | 93 | 1018.9 |
| 20260831114532 | 61 | 193 | 0.0 | 0.9 | 0.00 | 0.09 | 0.01 | 93 | 1018.8 |
| 20260831113026 | 60 | 193 | 0.0 | 0.9 | 0.00 | 0.09 | 0.01 | 93 | 1018.6 |
| 20260831111525 | 60 | 193 | 0.0 | 0.0 | 0.01 | 0.09 | 0.01 | 92 | 1018.7 |
| 20260831110022 | 60 | 193 | 0.0 | 0.0 | 0.01 | 0.09 | 0.01 | 92 | 1018.4 |
| 20260831104531 | 60 | 193 | 0.0 | 0.0 | 0.01 | 0.09 | 0.01 | 92 | 1018.3 |